EW9559 Weather Reports


time (UTC)temp
C
wind
direction
speed
KPH
gust
KPH
rain 1hr
cm
rain 24hr
cm
rain mn
cm
humidity
%
barometer
mb
20260905001532 16 257 0.0 6.4 0.00 0.08 0.08 75 1017.9
20260904234531 16 241 0.0 4.8 0.00 0.08 0.08 79 1017.9
20260904233029 15 266 0.0 4.8 0.00 0.08 0.08 79 1017.9
20260904230030 16 247 0.0 3.2 0.00 0.08 0.08 69 1017.9
20260904224532 17 236 0.0 6.4 0.00 0.08 0.08 64 1017.9
20260904223031 18 215 0.0 3.2 0.00 0.08 0.08 61 1017.7
20260904221531 18 268 0.0 1.6 0.00 0.08 0.08 62 1017.6
20260904220031 18 290 0.0 1.6 0.00 0.08 0.08 66 1017.6
20260904214532 17 292 0.0 0.0 0.00 0.08 0.08 67 1017.5
20260904213031 17 292 0.0 0.0 0.00 0.08 0.08 66 1017.4
20260904211534 17 292 0.0 0.0 0.00 0.08 0.08 68 1017.4
20260904210028 17 292 0.0 0.0 0.00 0.08 0.08 64 1017.3
20260904204533 18 292 0.0 0.0 0.00 0.08 0.08 61 1017.4
20260904203107 18 299 0.0 0.0 0.05 0.08 0.08 61 1017.4
20260904201530 17 315 0.0 0.0 0.05 0.08 0.08 65 1017.5
20260904200031 17 315 0.0 0.0 0.05 0.08 0.08 65 1017.6
20260904194530 17 287 0.0 1.6 0.05 0.08 0.03 66 1017.8
20260904193029 18 256 0.0 4.8 0.00 0.03 0.03 67 1017.8
20260904191530 17 266 0.0 3.2 0.00 0.03 0.03 68 1018.0
20260904184606 16 270 0.0 1.6 0.00 0.03 0.03 73 1018.1
20260904183105 15 224 0.0 1.6 0.00 0.03 0.03 78 1018.1
20260904180029 14 225 0.0 0.0 0.00 0.03 0.03 80 1018.0
20260904174530 14 225 0.0 0.0 0.00 0.03 0.03 79 1018.1
20260904173031 14 225 0.0 0.0 0.00 0.03 0.03 80 1018.0
20260904171603 13 225 0.0 1.6 0.00 0.03 0.03 82 1018.0
20260904164529 13 225 0.0 0.0 0.00 0.03 0.03 83 1017.9
20260904163103 13 225 0.0 0.0 0.00 0.03 0.03 85 1017.9
20260904161531 13 225 0.0 0.0 0.00 0.03 0.03 87 1017.9
20260904160032 13 225 0.0 0.0 0.00 0.03 0.03 89 1017.9
20260904154529 13 225 0.0 0.0 0.00 0.03 0.03 94 1017.8
20260904153103 11 225 0.0 0.0 0.00 0.03 0.03 96 1017.7
20260904151529 11 225 0.0 0.0 0.00 0.03 0.03 96 1017.5
20260904150029 10 225 0.0 3.2 0.00 0.03 0.03 96 1017.4
20260904144530 10 234 0.0 4.8 0.00 0.03 0.03 96 1017.3
20260904143033 10 270 0.0 1.6 0.00 0.03 0.03 96 1017.2
20260904141602 10 270 0.0 0.0 0.03 0.03 0.03 96 1017.0
20260904134531 9 270 0.0 0.0 0.03 0.03 0.03 95 1016.7
20260904133031 9 270 0.0 0.0 0.03 0.03 0.00 95 1016.6
20260904131529 9 270 0.0 0.0 0.00 0.00 0.00 95 1016.5
20260904130106 9 270 0.0 0.0 0.00 0.00 0.00 95 1016.3
20260904124645 9 270 0.0 1.6 0.00 0.00 0.00 95 1016.3
20260904123029 9 270 0.0 0.0 0.00 0.00 0.00 95 1016.3
20260904121531 9 270 0.0 1.6 0.00 0.00 0.00 94 1016.1
20260904114530 9 270 0.0 1.6 0.00 0.00 0.00 94 1015.9
20260904113033 9 270 0.0 1.6 0.00 0.00 0.00 94 1015.8
20260904111655 9 270 0.0 0.0 0.00 0.00 0.00 94 1015.7
20260904110028 10 270 0.0 0.0 0.00 0.00 0.00 94 1015.6
20260904101530 9 270 0.0 1.6 0.00 0.00 0.00 94 1015.2
20260904100030 9 270 0.0 1.6 0.00 0.00 0.00 93 1015.0
20260904094532 9 270 0.0 0.0 0.00 0.00 0.00 93 1015.0
20260904093028 9 270 0.0 0.0 0.00 0.00 0.00 93 1014.9
20260904091626 -17 0 0.0 0.0 0.00 0.00 0.00 100
20260904090030 9 270 0.0 1.6 0.00 0.00 0.00 91 1014.9
20260904084603 10 270 0.0 0.0 0.00 0.00 0.00 91 1014.8
20260904083146 10 270 0.0 0.0 0.00 0.00 0.00 91 1014.7
20260904081606 10 256 0.0 3.2 0.00 0.00 0.00 90 1014.6
20260904080033 10 247 0.0 1.6 0.00 0.00 0.00 90 1014.8
20260904074530 10 247 0.0 3.2 0.00 0.00 0.00 90 1014.8
20260904073031 10 247 0.0 1.6 0.00 0.00 0.00 90 1014.8
20260904061530 10 247 0.0 0.0 0.00 0.00 0.00 89 1014.6
20260904060047 10 247 0.0 1.6 0.00 0.00 0.00 88 1014.6
20260904054531 11 247 0.0 1.6 0.00 0.00 0.00 87 1014.6
20260904053105 11 247 0.0 0.0 0.00 0.00 0.00 86 1014.5
20260904051529 11 247 0.0 3.2 0.00 0.00 0.00 86 1014.6
20260904050029 11 247 0.0 1.6 0.00 0.00 0.00 85 1014.7
20260904044529 11 247 0.0 3.2 0.00 0.00 0.00 85 1014.7
20260904043027 11 252 0.0 1.6 0.00 0.00 0.00 84 1014.6
20260904040107 12 270 0.0 1.6 0.00 0.00 0.00 84 1014.7
20260904034533 12 248 0.0 3.2 0.00 0.00 0.00 84 1014.6
20260904033028 12 249 0.0 4.8 0.00 0.00 0.00 85 1014.5
20260904030106 12 264 0.0 8.0 0.00 0.00 0.00 86 1014.2
20260904021529 13 274 0.0 4.8 0.00 0.03 0.00 84 1013.9
20260904020029 13 266 0.0 3.2 0.00 0.05 0.00 82 1013.9
20260904014542 13 268 0.0 11.3 0.00 0.30 0.00 80 1013.9
20260904010033 15 268 0.0 4.8 0.00 0.33 0.00 76 1013.9
20260904004531 15 284 0.0 4.8 0.00 0.36 0.00 76 1013.7
20260904003031 15 291 0.0 3.2 0.00 0.36 0.00 76 1013.6